User: anonymous   Login
Location: Unspecified
(0.0000°N, 0.0000°E)
Time: 20:18:51
(UTC+00:00)
Language:

QB50P2 - Orbit

View from above orbital plane
View from above orbital plane
View from above satellite
View from above satellite

Ground track
Ground track

The orbit data is extracted from the following two-line orbital elements,

1 40032U 14033Y   18174.82646534  .00000256  00000-0  33737-4 0  9999
2 40032  97.9008  88.9017 0012411 152.3773 207.8106 14.88270310217710
Epoch (UTC): 23 June 2018 19:50:06
Eccentricity: 0.0012411
inclination: 97.9008°
perigee height: 594 km
apogee height: 612 km
right ascension of ascending node: 88.9017°
argument of perigee: 152.3773°
revolutions per day: 14.88270310
mean anomaly at epoch: 207.8106°
orbit number at epoch: 21771

The dashed part of the orbit path shows where the satellite is in the earth's shadow,  

DLR